www.pogodaiklimat.ru

Погода и климат >> Архив погоды >> Россия >> Якутия >> Алдан


АРХИВ ПОГОДЫ в Алдане

Время (UTC), дата Ветер
(напр.,м/с)
 
Видим.   Явления Облачность Т
(С)
Тd
(С)
f
(%)
Тe
(С)
Тes
(С)
Комфортность P
(гПа)
Po
(гПа)
Тmin
(С)
Tmax
(С)
R
(мм)
R24
(мм)
S
(см)
03 15.08 ЮЗ 2 10 км 10/8 300 м
[Cb cap Cs]
+14.3 +11.1 81 +14 +16 1006.3 939.2
06 15.08 ЮЗ 1 20 км {ливн. осадки} 10/8 600 м
[Cb cap Cs]
+15.1 +12.4 84 +16 +17 1006.6 929.6
09 15.08 штиль 0 20 км 10/8 600 м
[Cb cap Cs]
+16.4 +14.0 86 +16 +17 1006.4 929.8
12 15.08 штиль 0 50 км 8/5 600 м
[Cb cap Ci fib]
+13.4 +11.5 88 +13 +13 1007.7 930.3 +17.5 0.4
15 15.08 штиль 0 50 км 6/3 600 м
[Cb cap Ci fib]
+8.8 +8.0 95 +8 +8 1009.7 930.8
18 15.08 ЮЗ 1 50 км 6/3 600 м
[Cb cap Ci fib]
+6.9 +6.7 99 +6 +6 1010.6 931.2
21 15.08 Ю 1 50 км 8/4 1000 м
[Sc diur, vesp Ac trans Ci fib]
+8.3 +7.5 95 +7 +7 1010.8 931.6
00 16.08 ЮЗ 1 50 км 6/3 1000 м
[Sc Ci fib]
+16.0 +9.7 66 +17 +21 1009.0 932.1 +6.4
03 16.08 ЮВ 1 50 км 8/8 600 м
[Cb cap]
+18.7 +9.7 56 +20 +23 1008.3 932.1
06 16.08 С 1 50 км 8/6 600 м
[Cb cap Ac trans]
+19.4 +10.1 55 +22 +24 комфорт 1007.9 931.9
09 16.08 штиль 0 50 км 8/5 1000 м
[Sc diur, vesp Ac trans]
+20.7 +10.2 51 +22 +23 комфорт 1007.4 931.8
12 16.08 штиль 0 50 км 8/3 1000 м
[Sc diur, vesp Ac trans Ci fib]
+14.2 +11.2 82 +14 +14 1009.5 932.1 +21.7
15 16.08 штиль 0 50 км 8/3 1000 м
[Sc diur, vesp Ac trans Ci fib]
+10.1 +9.3 95 +9 +9 1010.7 932.1
18 16.08 штиль 0 20 км 8/0 1000 м
[Ac trans Ci fib]
+8.9 +8.3 96 +8 +8 1010.6 931.7
21 16.08 ЮЗ 1 50 км 9/8 1000 м
[Cb cap Ci fib]
+8.4 +7.8 96 +7 +7 1010.8 931.7
00 17.08 штиль 0 50 км 9/6 1000 м
[Sc Ci fib]
+13.4 +10.3 81 +13 +15 1008.9 931.4 +7.2
03 17.08 С 2 50 км 8/6 600 м
[Cb cap Ci fib]
+18.2 +11.5 65 +19 +23 1006.5 930.4
06 17.08 СВ 3 50 км 9/6 600 м
[Cb cap Ci fib]
+20.0 +12.2 61 +22 +24 комфорт 1004.4 928.8
09 17.08 СВ 1
{10}
50 км 10/5 600 м
[Cb cap Ac trans Cs]
+15.5 +10.6 73 +16 +17 1005.8 929.0
12 17.08 СВ 1 20 км слаб. ливневой дождь 10/8 600 м
[Cb cap Cs]
+10.8 +8.8 87 +10 +10 1006.9 928.7 +20.8 0.3
15 17.08 штиль 0 20 км {ливн. осадки} 10/8 600 м
[Cb cap Cs]
+8.4 +6.2 86 +8 +8 1007.1 928.3
18 17.08 штиль 0 50 км {ливн. осадки} 8/5 600 м
[Cb cap Ci fib]
+7.2 +5.9 91 +6 +6 1006.3 927.4
21 17.08 штиль 0 50 км 10/8 600 м
[Cb cap Cs]
+7.5 +6.6 94 +6 +6 1005.7 926.7
00 18.08 штиль 0 10 км слаб. ливневой дождь 10/8 600 м
[Cb cap Cs]
+9.6 +8.8 95 +9 +10 1004.9 926.5 +5.9 0.4
03 18.08 З 3 50 км {ливн. осадки} 10/6 600 м
[Cb cap Cs]
+12.6 +8.8 78 +11 +14 1004.2 926.7
06 18.08 Ю 2 50 км {ливн. осадки} 10/6 600 м
[Cb cap Cs]
+14.1 +9.6 74 +14 +16 1004.0 927.0
09 18.08 З 1 50 км {ливн. осадки} 8/6 600 м
[Cb cap Ci fib]
+14.0 +12.5 91 +14 +15 1005.2 928.2
12 18.08 штиль 0 50 км в посл. час ливневой дождь 8/5 600 м
[Cb cap Ci fib]
+11.6 +11.2 97 +11 +11 1007.4 929.5 +15.2 5
15 18.08 Ю 1 50 км 6/4 600 м
[Cb cap Ci fib]
+9.4 +9.0 97 +9 +9 1009.4 930.7
18 18.08 Ю 1 50 км 6/3 1000 м
[Sc Ci fib]
+8.8 +8.4 97 +8 +8 1010.7 931.7
21 18.08 штиль 0 50 км 8/0
[Ac trans Ci fib]
+6.0 +5.8 99 +5 +5 1012.8 932.8
00 19.08 штиль 0 50 км 8/3 1000 м
[Cu hum Ci fib]
+12.6 +9.2 80 +12 +16 1011.6 933.6 +15.3
03 19.08 штиль 0 50 км 8/5 1000 м
[Cb cap Ci fib]
+17.7 +8.6 55 +18 +24 1010.3 933.7
06 19.08 СВ 1 50 км 8/6 1000 м
[Cb cap Ci fib]
+19.1 +9.3 53 +21 +24 комфорт 1009.2 933.0
09 19.08 СВ 1 50 км 10/8 600 м
[Cb cap Cs]
+17.4 +12.9 75 +18 +19 1009.8 933.2
12 19.08 штиль 0 50 км 9/6 1000 м
[Sc diur, vesp Ac trans Ci fib]
+13.8 +9.7 76 +13 +13 1010.9 933.3 +20.0
15 19.08 штиль 0 10 км слаб. ливневой дождь 10/8 600 м
[Cb cap Cs]
+12.2 +10.5 89 +12 +12 1011.7 933.4
18 19.08 штиль 0 20 км {ливн. осадки} 10/8 600 м
[Cb cap Cs]
+11.3 +9.9 91 +11 +11 1012.0 933.6
21 19.08 Ю 1 50 км {ливн. осадки} 8/4 600 м
[Cb cap Ac trans Ci fib]
+10.7 +9.9 95 +10 +10 1012.4 933.8
00 20.08 С 1 50 км {ливн. осадки} 8/0
[Ac trans Ci fib]
+14.2 +11.2 82 +15 +19 1011.3 933.8 +10.0 0.4
03 20.08 СВ 1 50 км 6/4 600 м
[Cb cap Ci fib]
+18.2 +9.3 56 +19 +26 1010.2 933.8
06 20.08 штиль 0 50 км 8/5 600 м
[Cb cap Ci fib]
+18.4 +9.5 56 +19 +23 1010.2 933.8
09 20.08 штиль 0 50 км 8/5 600 м
[Cb cap Ci fib]
+19.0 +10.3 57 +20 +21 1010.4 934.2
12 20.08 штиль 0 50 км 8/4 1000 м
[Cb cap Ci fib]
+13.1 +8.5 74 +13 +13 1013.0 935.0 +21.5
15 20.08 штиль 0 50 км 8/3 1000 м
[Sc Ac trans Ci fib]
+9.4 +8.2 92 +9 +9 1014.7 935.5
18 20.08 штиль 0 50 км 8/3 1000 м
[Sc Ac trans Ci fib]
+8.3 +7.5 95 +7 +7 1015.2 935.7
21 20.08 штиль 0 50 км 6/0
[Ac trans Ci fib]
+6.1 +5.6 97 +5 +5 1016.5 936.3
00 21.08 С 1 50 км 6/0
[Ci fib]
+15.0 +9.8 71 +16 +20 1013.8 936.3 +5.7
03 21.08 СВ 2 50 км 6/4 1000 м
[Cu hum Ci fib]
+19.4 +8.7 50 +21 +26 комфорт 1013.1 936.7
06 21.08 СВ 2 50 км 9/6 600 м
[Cb cap Ac trans Ci fib]
+20.9 +9.3 47 +23 +25 комфорт 1011.4 935.5
09 21.08 СВ 2 50 км 9/4 1000 м
[Sc Ac trans Ci fib]
+18.5 +6.7 46 +19 +20 1012.1 935.5
12 21.08 штиль 0 50 км 8/5 1000 м
[Sc Ci fib]
+14.2 +10.2 77 +14 +14 1013.6 935.9 +21.6
15 21.08 штиль 0 50 км 9/5 1000 м
[Sc Ci fib]
+10.6 +9.0 90 +10 +10 1015.0 936.2
18 21.08 штиль 0 50 км 8/0
[Ac trans Ci fib]
+8.4 +7.8 96 +7 +7 1015.5 936.1
21 21.08 штиль 0 50 км 8/8 1000 м
[Sc]
+10.1 +9.1 94 +9 +9 1015.1 936.2
00 22.08 штиль 0 50 км 4/0
[Ac trans Ci fib]
+16.5 +10.3 67 +16 +21 1013.2 936.2 +7.5

 

Местоположение метеостанции Алдан (Якутия, Россия): широта 58.60 долгота 125.30 высота над уровнем моря 679 м.

В архиве по умолчанию представлена погода в Алдане за последнюю неделю. Архивные данные за месяц целиком и за предыдущие месяцы, начиная с января 2011 года, Вы можете получить, выбрав интересующий диапазон дат из раскрывающегося списка и нажав кнопку "Ввод!".


*Определитесь, кто Вы:
робот инопланетянин человек

Внимание! Время в таблицах - всемирное. Для получения местного времени необходимо прибавить поправку, которая равна 9 ч.

Смотрите также архив погоды в соседних городах и на ближайших метеорологических станциях:

Погода в Томмоте (Якутия, Россия) (66 км)
Погода в Суон-Тите (Якутия, Россия) (110 км)
Погода в Канкунском (Якутия, Россия) (111 км)
Погода в Буяге (Якутия, Россия) (154 км)
Погода в Угино (Якутия, Россия) (185 км)
Погода в Нерюнгри (Якутия, Россия) (199 км)
Погода в Джикимде (Якутия, Россия) (213 км)
Погода в Исити (Якутия, Россия) (247 км)
Погода в Нагорном (Якутия, Россия) (294 км)
Погода в Учуре (Якутия, Россия) (307 км)

Пояснения к столбцам:

Ветер - указаны скорость ветра в м/с - средняя за 10 мин, порывы в срок и между сроками (в фигурных скобках) и направление, откуда дует ветер: С - северный, СВ - северо-восточный, В - восточный, ЮВ - юго-восточный, Ю - южный, ЮЗ - юго-западный, З - западный, СЗ - северо-западный.
Видимость - горизонтальная дальность видимости в метрах или километрах. При видимости от 1 до 10 км при отсутствии осадков обычно наблюдается дымка, при ухудшении видимости до 1 км и менее - туман. В сухую погоду видимость может ухудшаться дымом, пылью или мглою.
Явления - указаны атмосферные явления, наблюдавшиеся в срок или в последний час перед сроком; фигурными скобками обозначены явления, наблюдавшиеся между сроками (за 1-3 часа до срока); квадратными скобками обозначены град или гололедные отложения с указанием их диаметра в мм.
Облачность - указаны через наклонную черту общая и нижняя облачность в баллах и высота нижней границы облаков в метрах; квадратными скобками обозначены формы облаков: Ci - перистые, Cs - перисто-слоистые, Cc - перисто-кучевые, Ac - высококучевые, As - высокослоистые, Sc - слоисто-кучевые, Ns - слоисто-дождевые, Cu - кучевые, Cb - кучево-дождевые. Подробнее классификацию облаков см. в Атласе облаков (PDF).
T - Температура воздуха - температура, измеренная на высоте 2 м над землей.
Td - Температура точки росы - температура, при понижении до которой содержащийся в воздухе водяной пар достигнет насыщения.
f - Относительная влажность воздуха - влажноcть воздуха, измеренная на высоте 2 м над землей.
Te - Эффективная температура - температура, которую ощущает одетый по сезону человек в тени. Характеристика душности погоды. При расчете учитывается влияние влажности воздуха и скорости ветра на теплоощущения человека.
Tes - Эффективная температура на солнце - температура, которую ощущает человек, с поправкой на солнечный нагрев. Характеристика знойности погоды. Зависит от высоты солнца над горизонтом, облачности и скорости ветра. Ночью, в пасмурную погоду, а также при ветре 12 м/с и более поправка равна нулю.
P - Атмосферное давление - приведенное к уровню моря атмосферное давление.
Po - Атмосферное давление - измеренное на уровне метеостанции атмосферное давление.
Tmin - Минимальная температура - минимум температуры воздуха на высоте 2 м над землей.
Tmax - Максимальная температура - максимум температуры воздуха на высоте 2 м над землей.
R - Количество осадков - Количество выпавших осадков за период времени, мм. При наведении курсора мыши на число - период времени, за который выпало указанное количество осадков.
R24 - Количество осадков - Количество выпавших осадков за 24 часа, мм.
S - Снежный покров - Высота снежного покрова, см. При наведении курсора мыши на число - состояние снежного покрова и степень покрытия местности в баллах.